Weather History for Teesside, United Kingdom

Change the Weather History Date:

Saturday, November 17, 2012

  Actual Average Record
Temperature  
Mean Temperature 42 °F -  
Max Temperature 48 °F 45 °F 57 °F (2004)
Min Temperature 37 °F 35 °F 26 °F (1998)
Degree Days  
Heating Degree Days 22    
Moisture  
Dew Point 39 °F    
Average Humidity 83    
Maximum Humidity 100    
Minimum Humidity 66    
Precipitation  
Precipitation 0.00 in - - ()
Sea Level Pressure  
Sea Level Pressure 29.69 in    
Wind  
Wind Speed 6 mph ()    
Max Wind Speed 14 mph    
Max Gust Speed -    
Visibility 4.6 miles    
Events Rain    
Averages and records for this station are not official NWS values.
T = Trace of Precipitation, MM = Missing Value Source: Averaged Metar Reports

Daily Weather History Graph

Daily Weather History Graph

Search for Another Location

Airport:

Trip Planner

Search our weather history database for the weather conditions in past years. The results will help you decide how hot, cold, wet, or windy it might be!

Date:

Astronomy

Nov. 17, 2012 Rise Set
Actual Time 7:40 AM GMT 4:00 PM GMT
Civil Twilight 6:59 AM GMT 4:41 PM GMT
Nautical Twilight 6:15 AM GMT 5:25 PM GMT
Astronomical Twilight 5:32 AM GMT 6:08 PM GMT
Moon 11:15 AM GMT (11/17) 7:53 PM GMT (11/17)
Length of Visible Light 9h 42m
Length of Day
8h 20m
Waxing Crescent, 18% of the Moon is Illuminated
Nov 17
Waxing Crescent
Nov 20
First Quarter
Nov 28
Full
Dec 6
Last Quarter
Dec 13
New

Hourly Weather History & Observations

Time (GMT) Temp. Windchill Dew Point Humidity Pressure Visibility Wind Dir Wind Speed Gust Speed Precip Events Conditions
5:50 AM 42.8 °F 39.3 °F 41.0 °F 93% 29.65 in 2.2 mi SSW 5.8 mph - N/A Rain Light Rain
6:20 AM 42.8 °F 40.1 °F 41.0 °F 93% 29.65 in 2.2 mi SSW 4.6 mph - N/A Rain Light Rain
6:50 AM 42.8 °F 40.1 °F 41.0 °F 93% 29.65 in 1.9 mi SW 4.6 mph - N/A Rain Light Rain
7:20 AM 42.8 °F 40.1 °F 41.0 °F 93% 29.65 in 1.2 mi SSW 4.6 mph - N/A Rain Light Rain
7:50 AM 42.8 °F 41.1 °F 41.0 °F 93% 29.65 in 1.0 mi SW 3.5 mph - N/A Rain Light Rain
8:20 AM 42.8 °F 40.1 °F 41.0 °F 93% 29.65 in 1.0 mi SW 4.6 mph - N/A Rain Light Rain
8:50 AM 42.8 °F 40.1 °F 41.0 °F 93% 29.68 in 1.0 mi SSW 4.6 mph - N/A Rain Light Rain
9:20 AM 42.8 °F 40.1 °F 42.8 °F 100% 29.68 in 1.1 mi SSW 4.6 mph - N/A Rain Light Rain
9:50 AM 42.8 °F 41.1 °F 42.8 °F 100% 29.68 in 1.2 mi SSW 3.5 mph - N/A   Mostly Cloudy
10:20 AM 44.6 °F 42.2 °F 42.8 °F 93% 29.68 in 1.4 mi SSW 4.6 mph - N/A   Haze
10:50 AM 46.4 °F 44.3 °F 42.8 °F 87% 29.68 in 4.3 mi SSW 4.6 mph - N/A   Scattered Clouds
11:20 AM 46.4 °F 43.5 °F 42.8 °F 87% 29.68 in 6.2 mi SW 5.8 mph - N/A   Scattered Clouds
11:50 AM 48.2 °F - 42.8 °F 82% 29.65 in 6.2 mi WSW 5.8 mph - N/A   Partly Cloudy
12:20 PM 48.2 °F - 42.8 °F 82% 29.68 in 6.2 mi WSW 9.2 mph - N/A   Scattered Clouds
12:50 PM 48.2 °F - 41.0 °F 76% 29.68 in 6.2 mi West 9.2 mph - N/A   Scattered Clouds
1:20 PM 48.2 °F - 41.0 °F 76% 29.68 in 6.2 mi West 8.1 mph - N/A   Scattered Clouds
1:50 PM 48.2 °F - 39.2 °F 71% 29.68 in 6.2 mi West 8.1 mph - N/A   Scattered Clouds
2:20 PM 48.2 °F - 41.0 °F 76% 29.68 in 6.2 mi WSW 6.9 mph - N/A   Partly Cloudy
2:50 PM 48.2 °F - 37.4 °F 66% 29.68 in 6.2 mi WSW 11.5 mph - N/A   Partly Cloudy
3:20 PM 48.2 °F - 37.4 °F 66% 29.68 in 6.2 mi West 12.7 mph - N/A   Partly Cloudy
3:50 PM 46.4 °F 40.4 °F 35.6 °F 66% 29.68 in 6.2 mi WSW 13.8 mph - N/A   Partly Cloudy
4:20 PM 44.6 °F 39.2 °F 35.6 °F 71% 29.71 in 6.2 mi WSW 10.4 mph - N/A   Partly Cloudy
4:50 PM 44.6 °F 39.2 °F 35.6 °F 71% 29.71 in 6.2 mi WSW 10.4 mph - N/A   Partly Cloudy
5:20 PM 42.8 °F 38.6 °F 35.6 °F 76% 29.71 in 6.2 mi SSW 6.9 mph - N/A   Partly Cloudy
5:50 PM 42.8 °F 39.3 °F 35.6 °F 76% 29.71 in 6.2 mi South 5.8 mph - N/A   Partly Cloudy
6:20 PM 39.2 °F 35.0 °F 35.6 °F 87% 29.71 in 6.2 mi South 5.8 mph - N/A   Partly Cloudy
6:50 PM 37.4 °F 32.8 °F 33.8 °F 87% 29.71 in 6.2 mi South 5.8 mph - N/A   Partly Cloudy
7:50 PM 41.0 °F 36.4 °F 35.6 °F 81% 29.74 in 6.2 mi WSW 6.9 mph - N/A   Partly Cloudy
8:20 PM 41.0 °F 34.7 °F 35.6 °F 81% 29.74 in 6.2 mi SW 10.4 mph - N/A   Partly Cloudy
8:50 PM 39.2 °F 32.0 °F 35.6 °F 87% 29.74 in 6.2 mi SW 11.5 mph - N/A   Partly Cloudy
9:20 PM 39.2 °F 32.5 °F 35.6 °F 87% 29.74 in 6.2 mi SSW 10.4 mph - N/A   Partly Cloudy
9:50 PM 39.2 °F 34.2 °F 35.6 °F 87% 29.74 in 6.2 mi SW 6.9 mph - N/A   Partly Cloudy